Torna al catalogo

STARLINK-11153

AttivoComunicazioniVLEO
NORAD 60067·PAYLOAD·🇺🇸 United States

Lanciato Jun 19, 2024 da Vandenberg Space Force Base

Loading…

Prossimi Passaggi (prossime 24 ore)

TLE

AggiornatoSource: CelesTrak SupGP

Epoca: Sep 14, 2026, 14:06 UTC

1 60067C 24113J   26257.58798611  .00020979  00000+0  17285-3 0  2576
2 60067  53.1571 340.4232 0001258  72.3078 308.3573 15.69692854    19

Traccia STARLINK-11153 in tempo reale con AllMySat

Download on the App Store